Wind_Speed
29 31 32 33 34 36 37 38 40 41 42 43 43 44 45 45 45 45 45 45 45 46 47 47 48 48 49 49 49 49 50 50 51 52 53 54 55 55 56 56 56 57 57 58 59 60 61 61 62 63 63 64
30 31 33 34 35 36 38 39 39 40 41 42 42 43 43 43 44 44 44 44 45 45 46 46 46 47 48 48 48 49 50 51 52 53 54 55 56 57 57 57 57 58 59 60 60 61 61 62 63 64 66 67
30 32 33 35 36 37 37 38 38 39 40 41 41 41 41 42 43 43 44 44 45 45 46 46 46 47 47 48 48 49 50 52 53 54 55 57 57 58 58 59 59 60 61 62 62 62 63 64 64 66 67 68
31 32 34 35 36 36 37 37 38 39 40 41 41 41 41 41 42 43 44 44 45 46 46 46 47 47 48 48 48 49 50 52 54 55 56 57 58 58 59 60 60 61 62 62 63 63 64 65 66 67 69 70
31 32 33 34 35 36 37 38 39 40 40 41 41 41 42 42 43 44 45 45 46 46 47 47 48 48 48 48 49 49 51 52 54 55 56 58 58 59 60 61 61 62 63 64 64 65 66 67 67 69 70 71
31 32 33 35 36 37 38 39 40 41 42 42 42 42 42 43 44 45 46 47 48 48 48 48 49 49 49 50 50 51 52 54 55 56 57 58 59 60 61 62 63 64 65 66 67 67 68 68 69 70 71 72
33 34 35 36 38 39 40 41 43 43 44 44 44 44 44 45 45 46 47 48 49 50 50 50 51 51 52 52 53 54 55 56 57 58 59 60 61 62 63 64 65 66 67 68 69 70 71 71 72 73 75 76
34 35 36 38 39 41 42 43 44 45 46 46 47 47 47 47 47 47 48 48 49 50 51 52 53 54 54 55 56 56 57 59 60 61 62 63 64 65 66 67 68 69 70 71 73 74 75 76 77 78 80 81
35 36 38 39 41 43 44 45 46 46 47 47 48 49 49 50 50 50 50 51 51 52 53 54 55 56 57 58 59 59 60 61 63 64 66 67 67 68 69 70 71 72 73 74 76 77 79 80 81 82 84 85
36 37 39 41 42 44 46 47 47 48 48 49 50 51 52 53 53 54 54 55 55 55 55 56 57 58 60 60 62 63 63 65 66 68 69 70 70 71 72 73 74 75 76 77 78 80 81 82 84 85 87 89
37 38 40 42 43 45 47 48 48 49 49 50 51 52 54 55 56 57 57 58 59 59 59 59 60 61 62 63 64 65 66 67 69 70 70 71 72 73 75 76 78 79 80 80 81 82 83 85 87 89 91 92
39 40 41 43 45 46 48 48 49 49 50 50 52 53 54 56 57 58 59 60 61 62 62 63 63 64 65 65 66 67 68 69 70 71 72 73 74 75 77 78 80 81 82 83 84 85 87 90 92 93 95 96
41 42 43 45 46 48 49 50 50 50 51 52 53 54 55 57 58 59 60 62 63 64 65 65 66 66 67 67 68 69 70 70 71 72 73 74 75 77 78 80 81 83 84 86 88 90 92 95 96 98 99 100
42 44 45 46 48 50 51 51 51 51 52 53 54 55 56 58 59 60 61 62 64 64 65 66 66 67 68 69 69 70 71 72 73 74 75 76 78 79 81 82 84 86 88 91 93 96 98 99 100 102 103 104
43 44 46 48 50 51 52 52 52 53 54 55 56 57 57 59 60 60 61 62 63 64 65 66 67 68 69 70 71 72 73 75 76 77 78 80 81 83 84 86 88 91 93 95 97 99 101 102 104 105 106 107
44 46 47 49 51 52 53 53 54 55 56 57 57 58 58 59 60 60 61 62 64 65 65 66 67 69 70 72 73 74 75 77 79 80 82 83 84 86 87 90 92 95 97 99 100 102 103 105 106 107 109 111
47 48 49 51 52 53 53 54 55 57 57 58 57 57 58 58 59 60 62 63 64 65 66 68 69 70 72 73 75 76 78 79 81 83 85 86 87 89 91 94 96 98 100 102 103 105 106 108 109 111 113 116
49 50 51 52 53 54 55 56 57 58 58 58 57 57 58 59 60 61 63 64 66 67 68 70 71 72 74 75 77 79 80 82 84 86 87 89 91 93 96 98 100 101 102 104 106 108 110 112 114 117 119 121
50 51 52 53 54 55 56 58 59 59 59 58 57 58 59 60 62 63 65 66 67 69 70 72 73 75 76 77 79 81 82 84 86 88 90 92 94 97 99 100 102 103 105 107 109 112 115 117 120 123 125 127
52 53 54 54 55 56 58 59 59 59 59 58 58 60 61 63 64 66 67 68 70 71 73 74 75 77 78 80 82 84 85 87 89 90 92 94 96 98 100 102 104 106 109 111 114 117 120 123 125 127 129 130
53 53 54 55 56 57 58 58 59 59 58 59 60 61 63 65 67 68 70 71 73 75 77 78 79 81 83 85 86 87 89 90 92 94 95 97 100 102 103 106 108 110 113 117 120 123 126 128 130 131 132 133
53 54 55 56 56 56 57 58 58 58 59 60 61 63 65 67 69 71 73 75 77 79 81 82 84 86 87 88 89 91 92 94 96 98 100 102 104 107 109 111 113 116 119 122 124 127 129 131 133 134 135 135
54 55 55 55 56 56 57 58 58 59 60 61 63 65 67 69 71 73 75 78 80 82 84 85 87 88 90 91 93 95 96 98 100 102 104 106 109 112 115 117 120 122 124 125 127 129 131 133 134 135 137 138
54 54 54 54 55 55 56 58 59 61 62 64 65 67 69 71 74 76 78 80 82 83 85 87 89 91 92 94 96 97 99 100 102 104 107 110 113 116 120 122 124 126 127 128 130 132 133 135 136 137 139 140
53 53 53 54 55 56 57 59 60 62 64 66 68 70 72 74 76 77 79 81 83 85 87 89 91 93 95 97 98 100 101 103 106 108 112 115 118 121 123 125 127 128 129 131 132 133 135 137 138 140 141 143
54 54 55 56 57 58 59 60 62 63 65 68 70 72 73 75 77 78 81 83 85 87 89 91 93 95 97 98 100 102 105 107 110 114 117 119 121 124 126 128 130 131 132 132 133 134 135 136 138 140 143 145
55 56 56 57 58 59 60 62 63 65 67 69 70 73 75 77 79 81 83 86 88 90 92 94 95 97 98 100 102 105 108 112 115 118 120 122 123 125 128 131 133 134 134 134 134 135 136 137 138 140 142 144
56 57 57 58 59 61 62 64 65 67 68 70 72 75 77 79 82 84 86 88 90 92 94 95 97 98 100 103 106 110 113 116 118 120 121 123 125 127 129 131 133 135 136 137 138 138 139 140 140 140 140 140
56 57 58 59 61 62 64 66 67 69 71 73 75 77 79 82 84 86 88 91 92 93 95 97 98 101 104 108 111 114 117 118 119 121 122 124 126 128 129 131 133 136 139 141 143 143 142 140 138 136 134 132
57 59 60 61 63 64 66 67 69 71 73 75 78 80 82 84 87 89 91 92 93 94 96 99 102 105 109 112 115 116 117 118 120 122 123 125 127 129 131 133 136 139 142 144 145 144 142 139 134 130 127 123
59 60 62 63 65 66 67 69 71 73 76 78 80 82 85 88 90 92 92 93 94 97 100 103 107 110 112 114 115 116 117 119 120 123 125 127 129 131 133 136 139 141 142 142 142 140 138 134 131 126 122 118
Wind_Direction
293 295 298 299 300 301 302 302 302 302 302 302 302 301 300 299 298 297 296 295 295 294 294 293 293 292 292 291 291 290 289 288 288 288 289 289 289 289 289 289 288 288 288 288 288 288 288 288 288 288 287 287
299 301 302 303 304 304 304 304 303 303 303 303 303 302 301 300 299 298 297 296 295 295 294 294 293 293 292 292 291 291 290 290 290 291 291 291 291 291 290 290 290 290 289 289 289 288 288 288 288 288 288 288
303 304 305 305 305 305 305 304 304 304 304 304 304 303 302 300 299 298 298 297 297 296 296 296 296 296 295 294 293 292 292 292 292 292 293 292 292 291 290 290 290 290 290 289 289 288 288 287 287 287 287 287
305 305 306 307 307 307 306 305 305 305 304 304 304 303 302 301 299 298 298 297 297 297 298 298 298 298 297 295 294 293 293 293 293 292 292 291 291 290 289 289 288 288 288 287 287 287 286 286 285 285 285 285
305 306 307 308 308 307 307 306 306 305 305 305 305 304 303 302 301 300 299 298 298 297 298 298 299 298 297 295 294 293 293 292 292 292 292 291 290 289 289 288 288 287 287 287 286 286 286 286 286 286 286 286
307 307 307 307 307 307 307 307 306 306 306 305 306 305 305 304 304 303 302 301 300 299 298 298 298 298 297 295 294 293 292 292 293 293 294 293 293 292 291 290 289 289 288 288 288 288 288 288 288 289 289 289
308 308 308 308 308 308 308 308 308 307 307 307 307 307 307 307 306 305 304 303 302 301 299 298 297 296 295 294 294 293 293 293 294 294 294 294 294 294 293 293 292 291 290 290 290 290 290 290 290 290 290 290
308 308 309 309 310 310 310 310 310 309 309 308 308 308 308 308 307 305 304 303 301 300 299 297 296 295 295 295 295 294 294 295 295 296 296 296 296 295 295 294 294 293 292 292 292 291 291 291 290 290 290 291
308 309 309 310 311 311 311 311 311 310 310 308 307 307 307 307 306 305 304 303 301 300 298 297 296 296 296 296 296 296 297 297 298 298 298 297 297 296 295 295 294 293 293 293 292 291 291 290 290 290 290 290
307 308 309 310 311 311 312 312 312 311 310 309 308 308 308 308 307 306 305 304 303 302 301 300 299 298 298 299 299 299 299 299 298 298 297 297 296 295 295 294 293 293 292 292 292 291 291 290 290 289 289 289
306 306 308 309 310 312 313 313 312 311 310 309 309 308 308 308 308 307 307 306 305 304 303 302 301 301 301 301 300 299 299 298 297 296 295 295 294 294 293 293 293 293 293 293 293 292 291 291 290 289 289 289
305 306 306 308 310 311 312 312 311 309 309 308 308 307 307 307 307 307 307 307 306 306 305 304 303 302 301 300 299 298 297 296 295 294 294 293 292 292 292 292 293 293 293 293 293 292 292 291 291 290 290 290
305 305 306 307 309 310 310 310 309 308 308 308 307 307 307 307 307 307 307 306 306 305 305 304 303 301 300 299 298 297 296 295 293 292 292 291 291 291 291 292 292 292 292 292 292 292 291 291 291 291 291 290
304 304 305 306 307 308 308 308 308 308 308 308 308 308 307 307 307 307 306 305 305 304 303 302 301 300 300 299 298 297 296 295 294 293 292 292 291 291 292 292 292 292 292 292 292 292 291 291 291 291 290 290
304 305 305 305 306 306 307 307 308 308 308 308 308 307 307 307 306 306 305 304 303 303 302 301 301 300 299 299 298 298 297 296 295 294 294 293 292 292 292 292 292 292 292 292 291 291 291 290 290 290 289 289
305 305 305 305 305 305 306 306 307 308 307 307 307 307 306 306 305 305 304 304 303 302 302 301 301 300 299 299 298 298 297 296 295 294 293 293 292 292 291 292 292 292 291 291 290 289 289 289 289 288 288 288
305 305 305 304 305 305 305 305 306 306 306 306 306 305 305 304 305 305 305 304 304 303 303 302 301 300 300 299 298 297 296 295 294 293 293 292 291 291 291 292 292 292 291 290 290 290 290 290 290 290 290 290
305 304 304 304 305 305 304 304 304 305 305 305 304 304 304 305 305 305 305 305 305 304 303 302 302 301 300 299 298 297 296 295 294 293 292 292 291 292 292 293 293 293 292 292 292 292 293 293 292 292 292 291
305 305 304 304 304 303 303 303 304 305 305 305 304 305 305 306 306 306 305 305 305 304 304 303 302 301 299 298 298 297 296 295 295 294 294 293 293 293 293 294 294 294 294 295 295 295 294 294 294 293 293 292
305 304 303 302 302 302 302 303 305 306 306 305 305 306 306 306 306 306 305 304 304 304 303 302 301 300 299 298 298 298 298 297 297 296 296 295 295 295 295 295 296 296 296 296 296 295 295 295 294 294 293 293
304 304 303 303 303 303 304 305 306 307 306 306 306 307 307 307 306 305 304 304 303 303 303 302 301 301 300 300 300 300 300 299 299 298 298 298 298 298 298 298 298 297 297 297 296 296 296 295 295 294 294 293
305 305 305 305 305 306 307 307 308 307 307 307 307 307 307 306 306 305 305 304 304 304 304 304 303 303 302 302 302 302 302 302 301 301 301 301 300 300 300 299 298 298 297 297 297 296 296 295 295 294 294 293
308 307 307 307 307 308 308 308 308 307 307 307 308 307 307 306 306 306 306 306 306 305 305 304 304 304 304 304 304 304 303 303 303 303 302 302 301 300 300 299 299 298 298 298 297 297 296 295 295 294 293 293
310 309 309 309 309 308 308 308 307 307 308 308 307 307 306 307 307 307 307 306 306 305 305 304 304 305 305 305 305 304 304 304 303 303 302 301 300 300 300 300 300 299 299 298 298 297 297 296 296 295 294 294
312 311 311 310 309 309 308 308 308 308 308 307 307 307 308 308 307 307 306 305 304 304 304 305 305 305 306 306 305 305 305 304 303 303 302 301 301 301 301 300 300 300 299 299 298 298 297 297 296 295 295 294
313 313 312 311 311 310 310 309 309 308 308 308 308 308 307 307 306 305 304 304 305 305 306 306 307 307 307 306 306 306 305 304 304 303 303 303 302 302 301 301 300 300 300 299 298 298 296 295 294 294 293 292
314 313 313 312 311 310 309 308 307 307 307 307 306 306 305 304 304 304 305 306 306 307 308 308 308 307 307 307 306 306 305 305 304 304 304 303 302 302 301 301 301 301 300 299 298 297 296 295 293 292 292 291
313 312 312 311 310 309 308 307 306 306 306 305 304 304 304 305 305 306 307 307 308 308 308 308 308 308 308 307 306 306 306 305 305 304 304 303 302 302 302 301 301 301 300 299 298 297 296 295 294 292 291 290
311 311 310 309 308 308 307 307 307 307 306 306 306 306 306 306 306 307 308 308 309 309 309 309 309 308 308 308 307 307 307 306 305 304 303 303 303 302 302 302 301 300 300 299 299 298 297 295 294 292 291 290
311 311 310 309 309 309 310 310 310 309 309 309 308 308 308 308 308 309 310 310 310 309 309 309 309 309 309 309 308 307 306 305 305 304 304 304 304 303 303 302 302 301 301 300 300 299 298 297 296 294 293 291
311 311 311 311 312 312 313 313 313 312 311 310 310 309 310 311 311 311 311 310 310 310 310 310 310 310 309 309 308 307 306 306 306 306 306 305 305 305 304 303 303 302 302 302 301 301 300 299 298 297 296 294
Height
10757 10756 10755 10754 10753 10751 10750 10748 10746 10744 10743 10741 10739 10737 10734 10732 10730 10728 10726 10724 10722 10720 10718 10716 10714 10712 10710 10708 10706 10703 10701 10699 10696 10694 10691 10689 10687 10684 10681 10679 10676 10673 10671 10668 10666 10664 10661 10659 10657 10654 10651 10648
10754 10753 10752 10751 10749 10748 10746 10745 10743 10741 10739 10737 10735 10732 10730 10728 10725 10723 10721 10719 10717 10715 10713 10712 10709 10707 10705 10703 10701 10698 10696 10693 10691 10688 10686 10683 10681 10678 10675 10673 10670 10667 10664 10662 10659 10657 10654 10652 10649 10646 10643 10640
10751 10750 10748 10747 10746 10744 10743 10741 10739 10737 10735 10733 10730 10728 10726 10723 10721 10719 10717 10714 10712 10710 10708 10706 10704 10702 10700 10698 10696 10693 10690 10688 10685 10682 10680 10677 10674 10672 10669 10666 10664 10660 10657 10654 10652 10649 10647 10644 10642 10638 10635 10632
10748 10747 10745 10744 10742 10741 10739 10737 10735 10733 10731 10728 10726 10724 10722 10719 10717 10714 10712 10710 10708 10706 10703 10701 10699 10697 10695 10693 10690 10688 10685 10682 10679 10677 10674 10671 10668 10666 10663 10660 10657 10654 10650 10647 10644 10641 10639 10636 10634 10630 10627 10624
10745 10744 10742 10740 10739 10737 10735 10733 10731 10729 10727 10724 10722 10719 10717 10715 10713 10710 10708 10705 10703 10701 10699 10697 10694 10692 10689 10687 10685 10683 10680 10676 10674 10671 10668 10665 10662 10659 10657 10654 10651 10647 10643 10640 10636 10633 10631 10628 10625 10622 10618 10616
10742 10741 10739 10737 10736 10734 10732 10730 10728 10725 10723 10720 10718 10715 10713 10711 10708 10706 10703 10700 10698 10696 10693 10691 10689 10686 10684 10681 10679 10677 10674 10671 10668 10665 10662 10659 10656 10653 10650 10647 10644 10640 10636 10632 10628 10625 10622 10619 10616 10612 10609 10606
10739 10737 10735 10734 10732 10730 10728 10726 10723 10721 10718 10716 10714 10711 10709 10707 10704 10702 10699 10696 10693 10690 10687 10685 10683 10680 10678 10675 10673 10671 10668 10664 10662 10659 10656 10653 10649 10646 10642 10639 10636 10632 10628 10624 10620 10616 10613 10609 10606 10603 10600 10597
10735 10733 10731 10729 10727 10725 10723 10721 10719 10717 10714 10712 10709 10707 10705 10702 10700 10697 10694 10691 10688 10685 10682 10679 10677 10674 10671 10668 10666 10664 10661 10658 10654 10651 10648 10645 10641 10638 10634 10631 10627 10623 10620 10616 10612 10608 10604 10600 10597 10593 10589 10586
10731 10729 10727 10725 10723 10721 10719 10717 10715 10713 10710 10708 10705 10702 10700 10697 10695 10692 10689 10686 10683 10680 10677 10674 10670 10668 10665 10662 10659 10657 10654 10650 10647 10643 10640 10636 10632 10629 10625 10622 10618 10615 10612 10608 10604 10600 10595 10591 10587 10583 10579 10575
10728 10725 10723 10721 10719 10717 10715 10713 10710 10708 10705 10702 10699 10696 10693 10691 10688 10685 10682 10679 10676 10673 10671 10668 10664 10661 10658 10655 10652 10649 10647 10643 10639 10635 10631 10628 10624 10620 10616 10613 10609 10606 10603 10600 10596 10591 10587 10582 10578 10574 10569 10565
10725 10722 10720 10717 10715 10713 10710 10708 10705 10702 10699 10697 10694 10691 10687 10685 10682 10679 10676 10672 10669 10667 10664 10661 10658 10655 10651 10649 10645 10642 10639 10635 10631 10627 10624 10620 10616 10611 10607 10603 10599 10596 10592 10589 10585 10581 10576 10572 10567 10563 10558 10553
10721 10718 10716 10714 10712 10709 10707 10704 10701 10698 10695 10692 10689 10686 10683 10680 10677 10673 10670 10667 10663 10660 10657 10654 10651 10648 10645 10642 10639 10635 10631 10628 10624 10620 10616 10612 10608 10603 10599 10595 10590 10586 10582 10578 10574 10570 10565 10560 10555 10550 10545 10540
10716 10714 10712 10710 10708 10705 10702 10699 10697 10694 10691 10688 10685 10682 10679 10675 10672 10668 10665 10662 10658 10655 10651 10648 10644 10641 10638 10635 10631 10628 10623 10620 10616 10612 10608 10604 10600 10596 10591 10587 10582 10578 10573 10568 10563 10559 10554 10549 10544 10539 10533 10528
10712 10710 10708 10706 10704 10701 10698 10695 10692 10689 10686 10683 10680 10677 10674 10670 10667 10663 10660 10656 10653 10649 10645 10641 10638 10634 10630 10626 10623 10619 10615 10611 10607 10604 10600 10596 10591 10587 10582 10578 10573 10569 10564 10559 10553 10548 10543 10538 10532 10527 10521 10516
10709 10707 10704 10702 10699 10696 10693 10690 10687 10684 10681 10678 10675 10672 10668 10665 10661 10658 10654 10651 10647 10643 10639 10635 10631 10627 10623 10618 10615 10611 10607 10602 10598 10594 10590 10586 10582 10578 10573 10569 10564 10559 10555 10549 10543 10537 10531 10526 10520 10514 10508 10502
10704 10702 10700 10697 10694 10691 10688 10685 10681 10678 10676 10673 10670 10666 10663 10659 10655 10652 10648 10645 10640 10636 10632 10628 10624 10620 10616 10612 10608 10604 10599 10595 10590 10585 10581 10577 10573 10569 10564 10560 10555 10549 10544 10539 10533 10526 10520 10514 10508 10502 10495 10488
10700 10697 10695 10692 10689 10686 10683 10680 10676 10673 10671 10668 10665 10661 10657 10654 10650 10646 10642 10638 10634 10629 10625 10621 10617 10613 10609 10605 10601 10597 10592 10587 10582 10578 10573 10569 10563 10558 10554 10549 10544 10538 10532 10526 10520 10513 10507 10501 10495 10488 10480 10473
10696 10693 10690 10687 10684 10681 10677 10674 10671 10668 10665 10662 10659 10655 10651 10647 10643 10639 10635 10631 10627 10623 10618 10614 10610 10606 10602 10598 10593 10589 10585 10579 10574 10569 10564 10559 10553 10547 10542 10537 10531 10525 10519 10511 10505 10498 10490 10484 10477 10470 10462 10456
10691 10688 10685 10682 10679 10675 10672 10668 10665 10662 10658 10655 10652 10648 10644 10640 10636 10632 10628 10624 10620 10616 10611 10607 10603 10598 10594 10590 10585 10581 10575 10570 10564 10559 10554 10548 10543 10536 10530 10525 10518 10512 10505 10498 10490 10482 10474 10467 10460 10452 10443 10437
10685 10683 10680 10677 10674 10670 10667 10663 10659 10656 10652 10648 10645 10641 10637 10632 10628 10625 10621 10617 10613 10608 10604 10599 10595 10590 10585 10580 10575 10570 10565 10559 10553 10548 10542 10535 10530 10524 10519 10512 10505 10498 10491 10483 10475 10466 10458 10449 10441 10434 10425 10418
10681 10677 10674 10671 10668 10664 10661 10657 10653 10649 10646 10642 10638 10634 10630 10625 10621 10617 10613 10609 10604 10600 10594 10589 10584 10579 10574 10569 10564 10559 10554 10548 10541 10536 10530 10522 10515 10508 10504 10497 10490 10484 10476 10467 10459 10449 10440 10430 10421 10414 10405 10397
10676 10672 10669 10665 10662 10659 10655 10650 10647 10643 10639 10635 10631 10627 10623 10619 10614 10609 10604 10599 10594 10589 10583 10578 10573 10568 10562 10557 10552 10546 10541 10534 10527 10520 10514 10507 10499 10491 10486 10481 10474 10467 10460 10451 10442 10432 10421 10411 10401 10393 10383 10373
10670 10667 10663 10660 10656 10653 10649 10645 10641 10637 10633 10629 10625 10621 10616 10611 10606 10601 10595 10590 10584 10579 10573 10567 10562 10556 10550 10545 10539 10534 10527 10521 10514 10506 10498 10491 10484 10475 10466 10462 10455 10449 10443 10434 10424 10415 10404 10393 10383 10373 10362 10351
10665 10661 10658 10654 10651 10648 10644 10640 10636 10631 10627 10623 10618 10614 10609 10604 10598 10592 10587 10581 10575 10569 10563 10558 10552 10546 10540 10534 10528 10522 10515 10508 10500 10493 10485 10476 10469 10460 10450 10442 10436 10428 10422 10414 10405 10394 10382 10371 10361 10351 10339 10326
10659 10656 10652 10649 10645 10642 10638 10634 10630 10625 10619 10615 10610 10605 10600 10595 10590 10584 10579 10573 10567 10561 10555 10549 10543 10536 10530 10522 10515 10508 10501 10494 10486 10479 10471 10462 10452 10444 10434 10426 10418 10410 10403 10395 10386 10376 10364 10350 10336 10325 10314 10301
10652 10649 10646 10642 10639 10635 10631 10627 10622 10618 10613 10608 10603 10598 10593 10588 10582 10577 10571 10564 10558 10552 10545 10539 10532 10525 10518 10511 10503 10495 10488 10480 10472 10463 10455 10447 10437 10426 10415 10406 10398 10391 10383 10376 10367 10358 10348 10337 10323 10307 10293 10278
10646 10642 10639 10635 10632 10628 10624 10620 10616 10612 10607 10602 10597 10591 10586 10580 10574 10567 10561 10555 10548 10542 10535 10528 10522 10515 10507 10500 10492 10484 10476 10466 10458 10449 10440 10431 10422 10411 10399 10386 10375 10366 10359 10352 10345 10337 10327 10318 10309 10295 10280 10261
10640 10637 10633 10629 10625 10622 10618 10614 10610 10606 10601 10596 10591 10584 10578 10571 10565 10558 10552 10545 10539 10532 10526 10519 10512 10504 10497 10489 10481 10471 10462 10453 10443 10434 10425 10415 10405 10396 10385 10371 10356 10344 10334 10325 10319 10314 10306 10296 10287 10275 10264 10251
10635 10632 10628 10624 10620 10616 10612 10607 10603 10598 10593 10587 10581 10575 10569 10562 10556 10550 10543 10536 10530 10523 10516 10508 10500 10493 10485 10476 10467 10457 10447 10438 10428 10418 10408 10399 10388 10377 10367 10355 10340 10324 10311 10300 10290 10283 10278 10272 10265 10254 10243 10234
10629 10625 10621 10617 10613 10608 10604 10599 10593 10588 10582 10577 10571 10565 10558 10552 10546 10539 10532 10525 10518 10511 10504 10496 10488 10480 10471 10462 10452 10443 10433 10422 10412 10402 10391 10381 10371 10359 10347 10335 10321 10306 10290 10275 10262 10250 10242 10236 10232 10228 10220 10212
10622 10618 10614 10609 10605 10600 10595 10590 10584 10579 10573 10567 10561 10555 10548 10541 10535 10528 10521 10514 10507 10500 10492 10484 10476 10467 10458 10448 10439 10429 10419 10408 10396 10385 10373 10362 10351 10339 10327 10314 10301 10287 10272 10254 10237 10222 10211 10201 10193 10189 10187 10183